Weather in Arras

France     50°17′13″N   2°46′36″E
temp.,
°C
wind,
m/s
gust,
m/s
humid.,
%
clouds,
%
prec.,
mm/h
press.,
hPa
HPBL,
m
22 september, wed
wed2223:00+12ene227126 0.0 103132
02:00+11e2274100 0.0 103019
05:00+10ene1174100 0.0 102914
08:00+10ene227480 0.0 103023
11:00+15ese2359100 0.0 1030330
14:00+18ese2248100 0.0 1028770
17:00+19s1146100 0.0 1026830
20:00+15sse1159100 0.0 102612
23 september, thu
thu2323:00+13ssw226490 0.0 102615
02:00+12sw33699 0.0 102439
05:00+11wsw337755 0.0 102352
08:00+10wsw368512 0.0 1023100
11:00+16w57695 0.0 1022408
14:00+20w67558 0.0 1020867
17:00+19w685783 0.0 1020776
20:00+14w4880100 0.0 1020251
24 september, fri
fri2423:00+14w488278 0.0 1020232
02:00+12w37955 0.0 1020137
05:00+12wsw489714 0.0 1019179
08:00+12wsw489892 0.0 1019229
11:00+15wsw578691 0.0 1019408
14:00+20wsw566551 0.0 10181079
17:00+20wsw566314 0.0 10171002
20:00+15wnw36800 0.0 1017136
25 september, sat
sat2523:00+12w36860 0.0 1018112
02:00+12wsw369618 0.0 1017114
05:00+11wsw33761 0.0 101748
08:00+11wsw22760 0.0 101723
11:00+17ssw2358100 0.0 1017299
14:00+21s225228 0.0 1016825
17:00+23se224794 0.0 10151068
20:00+18ese226438 0.0 101515
26 september, sun
sun2623:00+17ese3465100 0.0 101562
02:00+17se23695 0.0 101545
05:00+15sse22785 0.0 101428
08:00+14s35805 0.0 101480
11:00+20s4664100 0.0 1014376
14:00+24ssw575467 0.0 10141209
17:00+23wsw585129 0.0 10131713
20:00+17wnw22695 0.1 101444